Location: Newark
(49.3808°N, 3.1844°E)
Time: 07:07:52
(UTC+00:00)

Altair - Visible Passes

Search period start: 20 November 2019 00:00
Search period end: 30 November 2019 00:00
Orbit: 1502 x 1682 km, 47.2° (Epoch: 19 November)

Date Brightness Start Highest point End Pass type
(mag) Time Alt. Az. Time Alt. Az. Time Alt. Az.
20 Nov 8.9 01:46:46 24° E 01:46:46 24° E 01:50:45 10° E visible
20 Nov 7.4 03:44:48 57° SSW 03:46:29 67° SSE 03:55:39 10° E visible
20 Nov 7.5 05:42:51 15° W 05:50:55 79° S 06:00:19 10° E visible
21 Nov 9.3 01:23:07 18° E 01:23:07 18° E 01:25:30 10° E visible
21 Nov 7.4 03:21:09 64° SSE 03:21:23 65° SSE 03:30:29 10° E visible
21 Nov 7.5 05:19:11 22° W 05:25:46 79° S 05:35:08 10° E visible
22 Nov 9.5 00:59:26 13° E 00:59:26 13° E 01:00:14 10° E visible
22 Nov 7.7 02:57:28 58° SE 02:57:28 58° SE 03:05:19 10° E visible
22 Nov 7.4 04:55:30 31° W 05:00:37 80° S 05:09:58 10° E visible
23 Nov 8.1 02:33:45 46° ESE 02:33:45 46° ESE 02:40:09 10° E visible
23 Nov 7.4 04:31:47 42° WSW 04:35:28 80° S 04:44:47 10° E visible
23 Nov 7.8 06:30:49 10° W 06:39:49 61° SSW 06:49:02 10° SE visible
24 Nov 8.5 02:10:02 35° E 02:10:02 35° E 02:15:00 10° E visible
24 Nov 7.3 04:08:03 56° WSW 04:10:19 79° S 04:19:37 10° E visible
24 Nov 7.7 06:06:04 12° W 06:14:42 64° SSW 06:23:55 10° ESE visible
25 Nov 8.9 01:46:17 26° E 01:46:17 26° E 01:49:49 10° ENE visible
25 Nov 7.2 03:44:19 73° SW 03:45:11 79° S 03:54:26 10° E visible
25 Nov 7.6 05:42:20 18° W 05:49:35 66° SSW 05:58:48 10° ESE visible
26 Nov 9.2 01:22:33 19° E 01:22:33 19° E 01:24:40 10° ENE visible
26 Nov 7.3 03:20:34 76° SE 03:20:34 76° SE 03:29:16 10° E visible
26 Nov 7.5 05:18:35 25° W 05:24:27 68° SSW 05:33:42 10° ESE visible
27 Nov 9.5 00:58:48 13° E 00:58:48 13° E 00:59:30 10° ENE visible
27 Nov 7.7 02:56:49 60° ESE 02:56:49 60° ESE 03:04:06 10° E visible
27 Nov 7.5 04:54:51 34° W 04:59:20 70° SSW 05:08:34 10° ESE visible
28 Nov 8.1 02:33:06 45° E 02:33:06 45° E 02:38:56 10° E visible
28 Nov 7.4 04:31:07 46° W 04:34:12 72° SSW 04:43:26 10° ESE visible
28 Nov 8.2 06:29:46 10° W 06:38:01 39° SW 06:46:25 10° SSE visible
29 Nov 8.6 02:09:22 33° E 02:09:22 33° E 02:13:48 10° E visible
29 Nov 7.3 04:07:23 61° WSW 04:09:05 73° SSW 04:18:18 10° ESE visible
29 Nov 8.1 06:05:25 13° W 06:12:57 41° SW 06:21:28 10° SSE visible
